NUSAT-19 (ROSALIND)

Last updated on Fri Oct 04 2024 00:02:26 GMT+0000 (Coordinated Universal Time)

1 48905U 21059AC 24277.54364559 .00458986 00000+0 17998-2 0 9991 2 48905 97.5887 78.1023 0005603 285.4332 74.6318 15.85809882182783
UTC large
Height (km)
Speed (km/s)
/
Latitude / Longitude
Inclination (degrees)
Orbital Period (minutes)
Azimuth
Elevation
Range (km)
Doppler Factor

Next 0 passes for location: London (51.5072 / 0.1276)

Sorry there are no passes over London.